Location: Oroua River
(40.4333°S, 175.4333°E)
Time: 00:27:23
(UTC+00:00)

COSMOS 2455 - Pass Details

Date: 03 February 2023
Orbit: 898 x 911 km, 67.1° (Epoch: 31 March)

Event Time Altitude Azimuth Distance (km) Brightness Sun altitude
Exits shadow 15:58:32 - 2° (N) 3,007 5.2 -15.6°
Reaches altitude 10° 15:59:45 10° 6° (N) 2,591 4.9 -15.5°
Maximum altitude 16:05:11 36° 71° (ENE) 1,405 4.2 -14.6°
Drops below altitude 10° 16:10:38 10° 135° (SE) 2,611 6.7 -13.8°
Sets 16:13:20 0° 143° (SE) 3,557 7.5 -13.4°
